Location: Casteau
(50.5142°N, 4.0161°E)
Time: 06:19:49
(UTC+00:00)

Cosmos 1908 Rocket - Pass Details

Date: 18 September 2020
Orbit: 607 x 631 km, 82.5° (Epoch: 22 October)

Event Time Altitude Azimuth Distance (km) Brightness Sun altitude
Rises 18:45:20 0° 201° (SSW) 2,861 7.1 -9.5°
Reaches altitude 10° 18:47:35 10° 206° (SSW) 1,964 6.3 -9.8°
Maximum altitude 18:51:50 54° 284° (WNW) 751 4.4 -10.5°
Drops below altitude 10° 18:56:10 10° 2° (N) 1,994 6.3 -11.2°
Sets 18:58:28 0° 7° (N) 2,909 7.1 -11.5°
